TOURFACTS.DK  
Stats and Facts from Tour de France.

Tour de France 2018 starts in 225 days
  Riders   Stages   Teams   Summits   Yearly  


 
Search by year

 2017 - St. 21:  14824 starters.
  5131 different riders.
  634 teams.
  2232 stages.
  454 restdays.
  439589.60 km.
  5653 abandonnees.


Top 3
Christopher Froome86:20:55
Rigoberto Uran86:21:49
Romain Bardet86:23:15
Warren Barguil169 pt.
Primoz Roglic80 pt.
Thomas De Gendt64 pt.
Michael Matthews359 pt.
André Greipel234 pt.
Edvald Boasson Hagen220 pt.
Simon Yates86:27:09
Louis Meintjes86:29:15
Emanuel Buchmann86:54:16
Facts from Tour de France 2016
  |   Stages.  |   Stage winners.  |   Days in yellow  |   Average speed.  |   Route.  |   Teams.  |   All riders.  |   Rookies.  |   Withdrawls.  |  

  |   GC.  |   Polka  |   Green  |   White  |   Summits. (In tour)  |   Summits. (Points)  |   Miscellaneous.  |  

Stage 10 on 12 - 07 - 2016
         Owning:    Christopher Froome      Thibaut Pinot      Peter Sagan      Adam Yates  

Pick a stage:  1 2 3 4 5 6 7 8 9 10 11 12 13 14 15 16 17 18 19 20 21
  Escaldes-EngordanyRevel | Dist: 198.00 km.
Cat: 1Port d'EnvaliraPORRui Costa
10 points
 
Cat: 3Côte de Saint FerréolSVKPeter Sagan
2 points
 

Average speed for all riders in stage:  43,710 km./hr.
    Place:Name:Team:Time:Km/h:
AUSMichael MatthewsAUSORICA BikeExchange04:22:38  +  00:00:00=45,234 
SVKPeter SaganRUSTinkoff04:22:38  +  00:00:00=45,234 
NOREdvald Boasson HagenZAFDimension Data04:22:38  +  00:00:00=45,234 
4 BELGreg Van AvermaetUSABMC Racing Team04:22:38  +  00:00:00=45,234 
5 FRASamuel DumoulinFRAAg2r La Mondiale04:22:38  +  00:00:00=45,234 
6 RSADaryl ImpeyAUSORICA BikeExchange04:22:40  +  00:00:02=45,228 
7 AUSLuke DurbridgeAUSORICA BikeExchange04:23:48  +  00:01:10=45,034 
8 ITADamiano CarusoUSABMC Racing Team04:25:39  +  00:03:01=44,720 
9 ESPGorka Izaguirre InsaustiESPMovistar Team04:25:48  +  00:03:10=44,695 
10 FRATony GallopinBELLotto Soudal04:25:48  +  00:03:10=44,695 
11 PORRui CostaITALampre-Merida04:25:48  +  00:03:10=44,695 
12 FRASylvain ChavanelFRADirect Energie04:25:48  +  00:03:10=44,695 
13 ESPMikel Landa MeanaGBRSky Procycling04:25:52  +  00:03:14=44,684 
14 ITAVincenzo NibaliKAZAstana Pro Team04:25:52  +  00:03:14=44,684 
15 ENGStephen CummingsZAFDimension Data04:28:13  +  00:05:35=44,293 
16 BELEdward TheunsUSATrek – Segafredo04:32:17  +  00:09:39=43,631 
17 BELJasper StuyvenUSATrek – Segafredo04:32:17  +  00:09:39=43,631 
18 DENMichael ValgrenRUSTinkoff04:32:17  +  00:09:39=43,631 
19 GERTony MartinBELEtixx - Quick Step04:32:17  +  00:09:39=43,631 
20 WALLuke RoweGBRSky Procycling04:32:17  +  00:09:39=43,631 
21 SLOKristjan KorenUSATeam Cannondale Drapac04:32:17  +  00:09:39=43,631 
22 ENGIan StannardGBRSky Procycling04:32:17  +  00:09:39=43,631 
23 ESPImanol ErvitiESPMovistar Team04:32:17  +  00:09:39=43,631 
24 NEDBauke MollemaUSATrek – Segafredo04:32:17  +  00:09:39=43,631 
25 KENChristopher FroomeGBRSky Procycling04:32:17  +  00:09:39=43,631 
26 AUSRichie PorteUSABMC Racing Team04:32:17  +  00:09:39=43,631 
27 GERMarcus BurghardtUSABMC Racing Team04:32:17  +  00:09:39=43,631 
28 FRAPierre RollandUSATeam Cannondale Drapac04:32:17  +  00:09:39=43,631 
29 ENGDaniel MartinBELEtixx - Quick Step04:32:17  +  00:09:39=43,631 
30 PORNelson OliveiraESPMovistar Team04:32:17  +  00:09:39=43,631 
31 FRAMickaël CherelFRAAg2r La Mondiale04:32:17  +  00:09:39=43,631 
32 COLNairo QuintanaESPMovistar Team04:32:17  +  00:09:39=43,631 
33 NEDDylan Van BaarleUSATeam Cannondale Drapac04:32:17  +  00:09:39=43,631 
34 ITAFabio AruKAZAstana Pro Team04:32:17  +  00:09:39=43,631 
35 ITAFabio SabatiniBELEtixx - Quick Step04:32:17  +  00:09:39=43,631 
36 WALGeraint ThomasGBRSky Procycling04:32:17  +  00:09:39=43,631 
37 ESPJoaquim RodriguezRUSTeam Katusha04:32:17  +  00:09:39=43,631 
38 NEDRoy CurversDEUTeam Giant Alpecin04:32:17  +  00:09:39=43,631 
39 ESPAlejandro ValverdeESPMovistar Team04:32:17  +  00:09:39=43,631 
40 ITAMatteo BonoITALampre-Merida04:32:17  +  00:09:39=43,631 
41 ETHTsgabu Gebremaryan GrmayITALampre-Merida04:32:17  +  00:09:39=43,631 
42 GEREmanuel BuchmannDEUBora-Argon 1804:32:17  +  00:09:39=43,631 
43 ENGAdam YatesAUSORICA BikeExchange04:32:17  +  00:09:39=43,631 
44 AUSRohan DennisUSABMC Racing Team04:32:17  +  00:09:39=43,631 
45 AUSMathew HaymanAUSORICA BikeExchange04:32:17  +  00:09:39=43,631 
46 COLSergio Luis HenaoGBRSky Procycling04:32:17  +  00:09:39=43,631 
47 FRAArthur VichotFRAFDJ04:32:17  +  00:09:39=43,631 
48 SUIMichael SchärUSABMC Racing Team04:32:17  +  00:09:39=43,631 
49 FRACyril GautierFRAAg2r La Mondiale04:32:17  +  00:09:39=43,631 
50 AUSSimon GerransAUSORICA BikeExchange04:32:17  +  00:09:39=43,631 
51 ESPJesus HerradaESPMovistar Team04:32:17  +  00:09:39=43,631 
52 ITAPaolo TiralongoKAZAstana Pro Team04:32:17  +  00:09:39=43,631 
53 ITACesare BenedettiDEUBora-Argon 1804:32:17  +  00:09:39=43,631 
54 NEDRamon SinkeldamDEUTeam Giant Alpecin04:32:17  +  00:09:39=43,631 
55 BLRVasil KiryienkaGBRSky Procycling04:32:17  +  00:09:39=43,631 
56 JPNYukiya ArashiroITALampre-Merida04:32:17  +  00:09:39=43,631 
57 ESPMikel NieveGBRSky Procycling04:32:17  +  00:09:39=43,631 
58 BELJurgen Van Den BroeckRUSTeam Katusha04:32:17  +  00:09:39=43,631 
59 ESPJon Izaguirre InsaustiESPMovistar Team04:32:17  +  00:09:39=43,631 
60 CZERoman KreuzigerRUSTinkoff04:32:17  +  00:09:39=43,631 
61 FRARomain BardetFRAAg2r La Mondiale04:32:17  +  00:09:39=43,631 
62 RSALouis MeintjesITALampre-Merida04:32:17  +  00:09:39=43,631 
63 FRAPierre-Luc PérichonFRAFortuneo - Vital Concept04:32:17  +  00:09:39=43,631 
64 USATejay Van GarderenUSABMC Racing Team04:32:17  +  00:09:39=43,631 
65 SUISébastien ReichenbachFRAFDJ04:32:17  +  00:09:39=43,631 
66 ESPAlberto LosadaRUSTeam Katusha04:32:17  +  00:09:39=43,631 
67 NEDTom-Jelte SlagterUSATeam Cannondale Drapac04:32:17  +  00:09:39=43,631 
68 SLOLuka PibernikITALampre-Merida04:32:17  +  00:09:39=43,631 
69 NEDBert-Jan LindemanNLDTeam Lotto NL - Jumbo04:32:17  +  00:09:39=43,631 
70 DENChris Anker SørensenFRAFortuneo - Vital Concept04:32:17  +  00:09:39=43,631 
71 LUXBen GastauerFRAAg2r La Mondiale04:32:17  +  00:09:39=43,631 
72 FRAAnthony DelaplaceFRAFortuneo - Vital Concept04:32:17  +  00:09:39=43,631 
73 FRAAlexis VuillermozFRAAg2r La Mondiale04:32:17  +  00:09:39=43,631 
74 SUIGregory RastUSATrek – Segafredo04:32:17  +  00:09:39=43,631 
75 FRAWarren BarguilDEUTeam Giant Alpecin04:32:17  +  00:09:39=43,631 
76 FRAAnthony RouxFRAFDJ04:32:17  +  00:09:39=43,631 
77 RSAReinardt Janse Van RensburgZAFDimension Data04:32:17  +  00:09:39=43,631 
78 ARGEduardo SepulvedaFRAFortuneo - Vital Concept04:32:17  +  00:09:39=43,631 
79 SUIFabian CancellaraUSATrek – Segafredo04:32:17  +  00:09:39=43,631 
80 ITADomenico PozzovivoFRAAg2r La Mondiale04:32:17  +  00:09:39=43,631 
81 SLOJan PolancITALampre-Merida04:32:17  +  00:09:39=43,631 
82 ESPAngel ViciosoRUSTeam Katusha04:32:17  +  00:09:39=43,631 
83 ESPHaimar ZubeldiaUSATrek – Segafredo04:32:17  +  00:09:39=43,631 
84 FRABrice FeilluFRAFortuneo - Vital Concept04:32:17  +  00:09:39=43,631 
85 LUXFränk SchleckUSATrek – Segafredo04:32:17  +  00:09:39=43,631 
86 ITADiego RosaKAZAstana Pro Team04:32:17  +  00:09:39=43,631 
87 ESPLuis León SánchezKAZAstana Pro Team04:32:17  +  00:09:39=43,631 
88 CZEJan BártaDEUBora-Argon 1804:32:17  +  00:09:39=43,631 
89 CZEPetr VakocBELEtixx - Quick Step04:32:17  +  00:09:39=43,631 
90 ITAMatteo TosattoRUSTinkoff04:32:17  +  00:09:39=43,631 
91 ESPDaniel MorenoESPMovistar Team04:32:17  +  00:09:39=43,631 
92 UKRAndriy GrivkoKAZAstana Pro Team04:32:17  +  00:09:39=43,631 
93 FRANicolas EdetFRACofidis – Solutions Crédits04:32:17  +  00:09:39=43,631 
94 POLMaciej BodnarRUSTinkoff04:32:17  +  00:09:39=43,631 
95 USALawson CraddockUSATeam Cannondale Drapac04:32:17  +  00:09:39=43,631 
96 BELJan BakelantsFRAAg2r La Mondiale04:32:17  +  00:09:39=43,631 
97 AUTGeorg PreidlerDEUTeam Giant Alpecin04:32:17  +  00:09:39=43,631 
98 NEDStef ClementCHEIAM Cycling04:32:17  +  00:09:39=43,631 
99 USABrent BookwalterUSABMC Racing Team04:32:17  +  00:09:39=43,631 
100 USAAlex HowesUSATeam Cannondale Drapac04:32:17  +  00:09:39=43,631 
101 SUIMathias FrankCHEIAM Cycling04:32:17  +  00:09:39=43,631 
102 BELSerge PauwelsZAFDimension Data04:32:17  +  00:09:39=43,631 
103 SUIMartin ElmigerCHEIAM Cycling04:32:17  +  00:09:39=43,631 
104 URSTanel KangertKAZAstana Pro Team04:32:17  +  00:09:39=43,631 
105 ESPMarkel IrizarUSATrek – Segafredo04:32:17  +  00:09:39=43,631 
106 IOMMark CavendishZAFDimension Data04:32:17  +  00:09:39=43,631 
107 GERMarcel SiebergBELLotto Soudal04:32:17  +  00:09:39=43,631 
108 GERAndré GreipelBELLotto Soudal04:32:17  +  00:09:39=43,631 
109 SUIMichael AlbasiniAUSORICA BikeExchange04:32:17  +  00:09:39=43,631 
110 DENLars BakBELLotto Soudal04:32:17  +  00:09:39=43,631 
111 NEDLaurens ten DamDEUTeam Giant Alpecin04:32:17  +  00:09:39=43,631 
112 AUTPatrick KonradDEUBora-Argon 1804:32:17  +  00:09:39=43,631 
113 ERIDaniel TeklehaimanotZAFDimension Data04:32:17  +  00:09:39=43,631 
114 FRA Alexis GougeardFRAAg2r La Mondiale04:32:17  +  00:09:39=43,631 
115 FRAJulian AlaphilippeBELEtixx - Quick Step04:32:17  +  00:09:39=43,631 
116 GERMarcel KittelBELEtixx - Quick Step04:32:17  +  00:09:39=43,631 
117 RUSIlnur ZakarinRUSTeam Katusha04:32:17  +  00:09:39=43,631 
118 NEDTimo RoosenNLDTeam Lotto NL - Jumbo04:32:17  +  00:09:39=43,631 
119 AUTBernhard EiselZAFDimension Data04:32:17  +  00:09:39=43,631 
120 FRAArmindo FonsecaFRAFortuneo - Vital Concept04:32:17  +  00:09:39=43,631 
121 FRAThibaut PinotFRAFDJ04:32:17  +  00:09:39=43,631 
122 FRAAmaël MoinardUSABMC Racing Team04:32:17  +  00:09:39=43,631 
123 ESPRubén PlazaAUSORICA BikeExchange04:32:17  +  00:09:39=43,631 
124 NEDWilco KeldermanNLDTeam Lotto NL - Jumbo04:32:17  +  00:09:39=43,631 
125 SUIJakob FuglsangKAZAstana Pro Team04:32:17  +  00:09:39=43,631 
126 IRLChristopher Juul JensenAUSORICA BikeExchange04:32:17  +  00:09:39=43,631 
127 ESPDaniel NavarroFRACofidis – Solutions Crédits04:32:17  +  00:09:39=43,631 
128 USAPeter StetinaUSATrek – Segafredo04:32:17  +  00:09:39=43,631 
129 COLWinner AnaconaESPMovistar Team04:32:17  +  00:09:39=43,631 
130 COLJarlinson Pantano GomezCHEIAM Cycling04:32:17  +  00:09:39=43,631 
131 FRAFlorian VachonFRAFortuneo - Vital Concept04:32:17  +  00:09:39=43,631 
132 BELThomas De GendtBELLotto Soudal04:32:17  +  00:09:39=43,631 
133 SUIReto HollensteinCHEIAM Cycling04:32:17  +  00:09:39=43,631 
134 BELOliver NaesenCHEIAM Cycling04:32:17  +  00:09:39=43,631 
135 NORSondre Holst EngerCHEIAM Cycling04:32:17  +  00:09:39=43,631 
136 BELMaarten WynantsNLDTeam Lotto NL - Jumbo04:32:17  +  00:09:39=43,631 
137 GERSimon GeschkeDEUTeam Giant Alpecin04:32:17  +  00:09:39=43,631 
138 SLOBorut BozicFRACofidis – Solutions Crédits04:32:17  +  00:09:39=43,631 
139 HRVKristijan DurasekITALampre-Merida04:32:17  +  00:09:39=43,631 
140 NEDWout PoelsGBRSky Procycling04:32:17  +  00:09:39=43,631 
141 BELJürgen RoelandtsBELLotto Soudal04:32:17  +  00:09:39=43,631 
142 URSRamunas NavardauskasUSATeam Cannondale Drapac04:32:17  +  00:09:39=43,631 
143 DENMatti BreschelUSATeam Cannondale Drapac04:32:17  +  00:09:39=43,631 
144 FRAJérémy RoyFRAFDJ04:32:17  +  00:09:39=43,631 
145 FRAWilliam BonnetFRAFDJ04:32:17  +  00:09:39=43,631 
146 FRAJérôme CoppelCHEIAM Cycling04:32:17  +  00:09:39=43,631 
147 SUISteve MorabitoFRAFDJ04:32:17  +  00:09:39=43,631 
148 NEDTom DumoulinDEUTeam Giant Alpecin04:32:17  +  00:09:39=43,631 
149 NEDAlbert TimmerDEUTeam Giant Alpecin04:32:17  +  00:09:39=43,631 
150 POLRafal MajkaRUSTinkoff04:32:17  +  00:09:39=43,631 
151 POLBartosz HuzarskiDEUBora-Argon 1804:32:17  +  00:09:39=43,631 
152 FRAAngelo TulikFRADirect Energie04:32:17  +  00:09:39=43,631 
153 ERINatnael Teweldemedhin BerhaneZAFDimension Data04:32:17  +  00:09:39=43,631 
154 ESPLuis Angel MateFRACofidis – Solutions Crédits04:32:17  +  00:09:39=43,631 
155 HRVRobert KiserlovskiRUSTinkoff04:32:17  +  00:09:39=43,631 
156 ITAOscar GattoRUSTinkoff04:32:17  +  00:09:39=43,631 
157 CANAntoine DuchesneFRADirect Energie04:32:17  +  00:09:39=43,631 
158 FRAFabrice JeandesbozFRADirect Energie04:32:17  +  00:09:39=43,631 
159 BELJulien VermoteBELEtixx - Quick Step04:32:17  +  00:09:39=43,631 
160 GERPaul VossDEUBora-Argon 1804:32:17  +  00:09:39=43,631 
161 GERJohn DegenkolbDEUTeam Giant Alpecin04:32:17  +  00:09:39=43,631 
162 AUSAdam HansenBELLotto Soudal04:32:17  +  00:09:39=43,631 
163 FRABryan CoquardFRADirect Energie04:32:17  +  00:09:39=43,631 
164 NORAlexander KristoffRUSTeam Katusha04:32:17  +  00:09:39=43,631 
165 NORVegard BreenFRAFortuneo - Vital Concept04:32:17  +  00:09:39=43,631 
166 NEDDylan GroenewegenNLDTeam Lotto NL - Jumbo04:32:17  +  00:09:39=43,631 
167 GERRobert WagnerNLDTeam Lotto NL - Jumbo04:32:17  +  00:09:39=43,631 
168 GERPaul MartensNLDTeam Lotto NL - Jumbo04:32:17  +  00:09:39=43,631 
169 FRAAdrien PetitFRADirect Energie04:32:17  +  00:09:39=43,631 
170 BELJens DebusschereBELLotto Soudal04:32:17  +  00:09:39=43,631 
171 FRAThomas VoecklerFRADirect Energie04:32:17  +  00:09:39=43,631 
172 BELIljo KeisseBELEtixx - Quick Step04:32:17  +  00:09:39=43,631 
173 NZLGregory HendersonBELLotto Soudal04:32:17  +  00:09:39=43,631 
174 FRAYohann GèneFRADirect Energie04:32:17  +  00:09:39=43,631 
175 FRAGeoffrey SoupeFRACofidis – Solutions Crédits04:32:17  +  00:09:39=43,631 
176 ITADavide CimolaiITALampre-Merida04:32:17  +  00:09:39=43,631 
177 FRAJérôme CousinFRACofidis – Solutions Crédits04:32:17  +  00:09:39=43,631 
178 BRAMaximilano RichezeBELEtixx - Quick Step04:32:17  +  00:09:39=43,631 
179 FRARomain SicardFRADirect Energie04:32:17  +  00:09:39=43,631 
180 NZLGeorge BennettNLDTeam Lotto NL - Jumbo04:32:51  +  00:10:13=43,540 
181 BELSep VanmarckeNLDTeam Lotto NL - Jumbo04:32:51  +  00:10:13=43,540 
182 FRAChristophe LaporteFRACofidis – Solutions Crédits04:33:16  +  00:10:38=43,474 
183 FRAArnold JeannessonFRACofidis – Solutions Crédits04:33:16  +  00:10:38=43,474 
184 KAZAlexey LutsenkoKAZAstana Pro Team04:33:16  +  00:10:38=43,474 
185 GERAndreas SchillingerDEUBora-Argon 1804:33:16  +  00:10:38=43,474 
186 BELSam BennettDEUBora-Argon 1804:33:16  +  00:10:38=43,474 
187 FRACyril LemoineFRACofidis – Solutions Crédits04:33:20  +  00:10:42=43,463 
188 ITAJacopo GuarnieriRUSTeam Katusha04:34:16  +  00:11:38=43,316 
189 AUTMarco HallerRUSTeam Katusha04:34:16  +  00:11:38=43,316 
190 ENGDaniel McLayFRAFortuneo - Vital Concept04:34:16  +  00:11:38=43,316 
191 NZLShane ArchboldDEUBora-Argon 1804:34:16  +  00:11:38=43,316 
192 AUSLeigh HowardCHEIAM Cycling04:34:16  +  00:11:38=43,316 

Withdrawls: 1
 
Rider
Team
Reason
86  NEDSebastian LangeveldUSATeam Cannondale DrapacDid not finish

Todays birthdays.

1873  Charles Perraud
1890  Marcel Perriere
1896  Arthur Targez
1903  François Menta
1911  Emil Kijewski
1937  Rudolf Hauser
1942  Johny Schleck
1943  Mario Anni
1947  Fernando Plaza
1956  Jorge Ruiz
1959  Fabio Parra Pinto
1965  José Roncancio
1967  Roland Meier
1970  Daniele Sgnaolin